| time (UTC) | temp C | wind direction | speed KPH | gust KPH | rain 1hr cm | rain 24hr cm | rain mn cm | humidity % | barometer mb |
| 20260506211749 | 15 | 230 | 6.4 | 25.7 | 0.00 | 0.05 | 0.05 | 94 | 1008.9 |
| 20260506211246 | 15 | 196 | 11.3 | 30.6 | 0.00 | 0.05 | 0.05 | 94 | 1008.8 |
| 20260506210743 | 15 | 188 | 12.9 | 29.0 | 0.00 | 0.05 | 0.05 | 94 | 1008.7 |
| 20260506210239 | 15 | 219 | 14.5 | 29.0 | 0.00 | 0.05 | 0.05 | 95 | 1008.5 |
| 20260506205736 | 15 | 197 | 22.5 | 30.6 | 0.00 | 0.05 | 0.05 | 95 | 1008.8 |
| 20260506205232 | 15 | 230 | 25.7 | 30.6 | 0.00 | 0.05 | 0.05 | 95 | 1008.7 |
| 20260506204729 | 14 | 200 | 20.9 | 27.4 | 0.00 | 0.05 | 0.05 | 96 | 1008.6 |
| 20260506204226 | 14 | 200 | 12.9 | 24.1 | 0.00 | 0.05 | 0.05 | 96 | 1008.7 |
| 20260506203724 | 14 | 185 | 14.5 | 27.4 | 0.00 | 0.05 | 0.05 | 97 | 1008.6 |
| 20260506203215 | 14 | 185 | 11.3 | 17.7 | 0.00 | 0.05 | 0.05 | 97 | 1008.4 |
| 20260506202713 | 14 | 190 | 22.5 | 25.7 | 0.00 | 0.05 | 0.05 | 97 | 1008.5 |
| 20260506202209 | 14 | 205 | 14.5 | 30.6 | 0.00 | 0.05 | 0.05 | 97 | 1008.7 |
| 20260506201707 | 14 | 207 | 11.3 | 24.1 | 0.00 | 0.05 | 0.05 | 97 | 1008.8 |
| 20260506201203 | 14 | 208 | 12.9 | 30.6 | 0.00 | 0.05 | 0.05 | 97 | 1008.8 |
| 20260506200700 | 14 | 200 | 14.5 | 25.7 | 0.00 | 0.05 | 0.05 | 97 | 1008.9 |
| 20260506200156 | 14 | 215 | 11.3 | 27.4 | 0.00 | 0.05 | 0.05 | 97 | 1009.0 |
| 20260506195652 | 14 | 257 | 9.7 | 27.4 | 0.00 | 0.05 | 0.05 | 97 | 1009.0 |
| 20260506195148 | 14 | 190 | 16.1 | 27.4 | 0.00 | 0.05 | 0.05 | 98 | 1008.8 |
| 20260506194641 | 14 | 203 | 11.3 | 24.1 | 0.00 | 0.05 | 0.05 | 97 | 1009.3 |
| 20260506194137 | 14 | 226 | 16.1 | 29.0 | 0.00 | 0.05 | 0.05 | 98 | 1009.4 |
| 20260506193635 | 14 | 210 | 17.7 | 33.8 | 0.00 | 0.05 | 0.05 | 97 | 1009.4 |
| 20260506193132 | 14 | 195 | 9.7 | 33.8 | 0.00 | 0.05 | 0.05 | 98 | 1009.4 |
| 20260506192629 | 13 | 196 | 6.4 | 40.2 | 0.00 | 0.05 | 0.05 | 98 | 1009.4 |
| 20260506192124 | 13 | 226 | 20.9 | 27.4 | 0.00 | 0.05 | 0.05 | 98 | 1009.3 |
| 20260506191621 | 13 | 216 | 9.7 | 29.0 | 0.00 | 0.05 | 0.05 | 99 | 1009.3 |
| 20260506191117 | 13 | 204 | 16.1 | 30.6 | 0.00 | 0.05 | 0.05 | 99 | 1009.1 |
| 20260506190615 | 13 | 178 | 22.5 | 24.1 | 0.00 | 0.05 | 0.05 | 99 | 1009.4 |
| 20260506190112 | 13 | 213 | 17.7 | 22.5 | 0.00 | 0.05 | 0.05 | 99 | 1009.6 |
| 20260506185609 | 13 | 202 | 16.1 | 24.1 | 0.00 | 0.05 | 0.05 | 99 | 1009.7 |
| 20260506185105 | 13 | 214 | 25.7 | 25.7 | 0.00 | 0.05 | 0.05 | 99 | 1009.9 |
| 20260506184603 | 13 | 202 | 11.3 | 27.4 | 0.00 | 0.05 | 0.05 | 99 | 1009.9 |
| 20260506184100 | 13 | 221 | 19.3 | 24.1 | 0.00 | 0.05 | 0.05 | 99 | 1009.9 |
| 20260506183556 | 13 | 193 | 14.5 | 22.5 | 0.00 | 0.05 | 0.05 | 99 | 1010.0 |
| 20260506183052 | 13 | 210 | 12.9 | 20.9 | 0.05 | 0.05 | 0.05 | 99 | 1010.1 |
| 20260506182550 | 13 | 226 | 12.9 | 19.3 | 0.23 | 0.05 | 0.05 | 98 | 1009.9 |
| 20260506182047 | 13 | 185 | 9.7 | 25.7 | 0.23 | 0.05 | 0.05 | 98 | 1010.3 |
| 20260506181545 | 13 | 223 | 9.7 | 32.2 | 0.05 | 0.03 | 0.03 | 98 | 1010.5 |
| 20260506181041 | 13 | 194 | 20.9 | 29.0 | 0.00 | 0.00 | 0.00 | 97 | 1010.4 |
| 20260506180538 | 13 | 220 | 12.9 | 25.7 | 0.00 | 0.00 | 0.00 | 97 | 1010.4 |
| 20260506180035 | 13 | 188 | 19.3 | 29.0 | 0.05 | 0.00 | 0.00 | 97 | 1010.4 |
| 20260506175531 | 13 | 197 | 11.3 | 29.0 | 0.05 | 0.00 | 0.00 | 97 | 1010.5 |
| 20260506175027 | 13 | 179 | 16.1 | 35.4 | 0.00 | 0.00 | 0.00 | 97 | 1010.6 |
| 20260506174527 | 14 | 228 | 14.5 | 27.4 | 0.00 | 0.00 | 0.00 | 97 | 1010.5 |
| 20260506174022 | 14 | 195 | 17.7 | 29.0 | 0.00 | 0.00 | 0.00 | 97 | 1010.7 |
| 20260506173520 | 14 | 206 | 8.0 | 24.1 | 0.00 | 0.00 | 0.00 | 97 | 1010.6 |
| 20260506173017 | 14 | 218 | 14.5 | 29.0 | 0.00 | 0.00 | 0.00 | 96 | 1010.7 |
| 20260506172514 | 14 | 237 | 17.7 | 32.2 | 0.00 | 0.00 | 0.00 | 96 | 1010.4 |
| 20260506172010 | 14 | 215 | 24.1 | 25.7 | 0.00 | 0.00 | 0.00 | 95 | 1010.6 |
| 20260506171508 | 14 | 207 | 14.5 | 35.4 | 0.00 | 0.00 | 0.00 | 95 | 1010.3 |
| 20260506171005 | 14 | 193 | 12.9 | 30.6 | 0.00 | 0.00 | 0.00 | 94 | 1010.8 |
| 20260506170501 | 14 | 207 | 22.5 | 40.2 | 0.00 | 0.00 | 0.00 | 93 | 1010.8 |
| 20260506165954 | 14 | 203 | 22.5 | 32.2 | 0.00 | 0.00 | 0.00 | 93 | 1010.9 |
| 20260506165452 | 15 | 200 | 17.7 | 33.8 | 0.00 | 0.00 | 0.00 | 92 | 1010.9 |
| 20260506164948 | 15 | 207 | 17.7 | 33.8 | 0.00 | 0.00 | 0.00 | 92 | 1011.3 |
| 20260506164445 | 15 | 257 | 11.3 | 30.6 | 0.00 | 0.00 | 0.00 | 92 | 1011.4 |
| 20260506163943 | 14 | 218 | 16.1 | 30.6 | 0.00 | 0.00 | 0.00 | 92 | 1011.6 |
| 20260506163437 | 14 | 227 | 14.5 | 32.2 | 0.00 | 0.00 | 0.00 | 92 | 1011.5 |
| 20260506162927 | 14 | 202 | 17.7 | 27.4 | 0.00 | 0.00 | 0.00 | 92 | 1011.5 |
| 20260506162425 | 15 | 192 | 8.0 | 32.2 | 0.00 | 0.00 | 0.00 | 92 | 1011.5 |
| 20260506161922 | 14 | 246 | 8.0 | 30.6 | 0.00 | 0.00 | 0.00 | 92 | 1011.5 |
| 20260506161420 | 14 | 190 | 14.5 | 32.2 | 0.00 | 0.00 | 0.00 | 92 | 1011.7 |
| 20260506160917 | 14 | 222 | 11.3 | 27.4 | 0.00 | 0.00 | 0.00 | 93 | 1011.6 |
| 20260506160414 | 14 | 255 | 17.7 | 32.2 | 0.00 | 0.00 | 0.00 | 93 | 1011.6 |
| 20260506155912 | 14 | 199 | 25.7 | 30.6 | 0.00 | 0.00 | 0.00 | 93 | 1011.7 |
| 20260506155408 | 14 | 189 | 20.9 | 25.7 | 0.00 | 0.00 | 0.00 | 93 | 1011.9 |
| 20260506153525 | 14 | 208 | 22.5 | 29.0 | 0.00 | 0.00 | 0.00 | 93 | 1012.1 |
| 20260506153022 | 14 | 208 | 19.3 | 29.0 | 0.00 | 0.00 | 0.00 | 92 | 1012.0 |
| 20260506152519 | 14 | 197 | 20.9 | 27.4 | 0.00 | 0.00 | 0.00 | 92 | 1012.2 |
| 20260506152017 | 15 | 220 | 20.9 | 29.0 | 0.00 | 0.00 | 0.00 | 91 | 1011.9 |
| 20260506151515 | 15 | 204 | 20.9 | 24.1 | 0.00 | 0.00 | 0.00 | 92 | 1012.2 |
| 20260506151012 | 14 | 228 | 14.5 | 27.4 | 0.00 | 0.00 | 0.00 | 92 | 1012.1 |
| 20260506150508 | 14 | 183 | 17.7 | 33.8 | 0.00 | 0.00 | 0.00 | 92 | 1012.3 |
| 20260506150005 | 15 | 223 | 14.5 | 37.0 | 0.00 | 0.00 | 0.00 | 91 | 1012.2 |
| 20260506145501 | 15 | 201 | 14.5 | 27.4 | 0.00 | 0.00 | 0.00 | 90 | 1012.3 |
| 20260506144959 | 15 | 211 | 14.5 | 24.1 | 0.00 | 0.00 | 0.00 | 90 | 1012.2 |
| 20260506144455 | 15 | 190 | 8.0 | 29.0 | 0.00 | 0.00 | 0.00 | 90 | 1012.3 |
| 20260506143953 | 15 | 201 | 16.1 | 30.6 | 0.00 | 0.00 | 0.00 | 89 | 1012.2 |
| 20260506143450 | 15 | 210 | 20.9 | 24.1 | 0.00 | 0.00 | 0.00 | 89 | 1012.5 |
| 20260506142949 | 15 | 226 | 11.3 | 35.4 | 0.00 | 0.00 | 0.00 | 89 | 1012.3 |
| 20260506142447 | 15 | 209 | 16.1 | 29.0 | 0.00 | 0.00 | 0.00 | 89 | 1012.4 |
| 20260506141944 | 15 | 176 | 14.5 | 19.3 | 0.00 | 0.00 | 0.00 | 89 | 1012.3 |
| 20260506141442 | 15 | 228 | 9.7 | 19.3 | 0.00 | 0.00 | 0.00 | 90 | 1012.3 |
| 20260506140940 | 15 | 229 | 6.4 | 20.9 | 0.00 | 0.00 | 0.00 | 91 | 1012.4 |
| 20260506140436 | 14 | 196 | 19.3 | 25.7 | 0.00 | 0.00 | 0.00 | 91 | 1012.4 |
| 20260506135933 | 14 | 186 | 11.3 | 33.8 | 0.00 | 0.00 | 0.00 | 92 | 1012.1 |
| 20260506135431 | 14 | 201 | 11.3 | 27.4 | 0.00 | 0.00 | 0.00 | 93 | 1012.4 |
| 20260506134927 | 14 | 194 | 9.7 | 24.1 | 0.00 | 0.00 | 0.00 | 92 | 1012.6 |
| 20260506134423 | 14 | 218 | 14.5 | 37.0 | 0.00 | 0.00 | 0.00 | 92 | 1012.6 |
| 20260506133920 | 14 | 213 | 8.0 | 27.4 | 0.00 | 0.00 | 0.00 | 92 | 1012.7 |
| 20260506133417 | 14 | 207 | 16.1 | 25.7 | 0.00 | 0.00 | 0.00 | 92 | 1012.6 |
| 20260506132913 | 14 | 201 | 14.5 | 25.7 | 0.00 | 0.00 | 0.00 | 92 | 1012.6 |
| 20260506132411 | 14 | 201 | 8.0 | 32.2 | 0.00 | 0.00 | 0.00 | 92 | 1012.7 |
| 20260506131909 | 15 | 240 | 11.3 | 22.5 | 0.00 | 0.00 | 0.00 | 91 | 1012.8 |
| 20260506131404 | 15 | 190 | 8.0 | 24.1 | 0.00 | 0.00 | 0.00 | 91 | 1012.8 |
| 20260506130902 | 14 | 189 | 14.5 | 30.6 | 0.00 | 0.00 | 0.00 | 92 | 1012.6 |
| 20260506130358 | 14 | 219 | 32.2 | 32.2 | 0.00 | 0.00 | 0.00 | 92 | 1012.6 |
| 20260506125856 | 14 | 207 | 14.5 | 40.2 | 0.00 | 0.00 | 0.00 | 93 | 1012.6 |
| 20260506125354 | 15 | 204 | 33.8 | 33.8 | 0.00 | 0.00 | 0.00 | 92 | 1012.5 |
| 20260506124852 | 14 | 212 | 14.5 | 24.1 | 0.00 | 0.00 | 0.00 | 93 | 1012.6 |
| 20260506124349 | 14 | 188 | 14.5 | 29.0 | 0.00 | 0.00 | 0.00 | 93 | 1012.8 |
| 20260506123847 | 14 | 246 | 11.3 | 32.2 | 0.00 | 0.00 | 0.00 | 93 | 1012.7 |
| 20260506123345 | 14 | 215 | 9.7 | 22.5 | 0.00 | 0.00 | 0.00 | 94 | 1012.6 |
| 20260506122842 | 13 | 199 | 20.9 | 25.7 | 0.00 | 0.00 | 0.00 | 94 | 1012.7 |
| 20260506122339 | 13 | 187 | 12.9 | 29.0 | 0.00 | 0.00 | 0.00 | 94 | 1012.7 |
| 20260506121837 | 13 | 225 | 22.5 | 33.8 | 0.00 | 0.00 | 0.00 | 94 | 1012.6 |
| 20260506121333 | 14 | 209 | 19.3 | 30.6 | 0.00 | 0.00 | 0.00 | 94 | 1012.5 |
| 20260506120831 | 14 | 189 | 11.3 | 25.7 | 0.00 | 0.00 | 0.00 | 94 | 1012.4 |
| 20260506120328 | 13 | 230 | 8.0 | 25.7 | 0.00 | 0.00 | 0.00 | 95 | 1012.5 |
| 20260506115826 | 13 | 199 | 14.5 | 32.2 | 0.00 | 0.00 | 0.00 | 95 | 1012.3 |
| 20260506115324 | 13 | 186 | 16.1 | 29.0 | 0.00 | 0.00 | 0.00 | 96 | 1012.4 |
| 20260506114821 | 13 | 195 | 20.9 | 25.7 | 0.00 | 0.00 | 0.00 | 96 | 1012.3 |
| 20260506114319 | 13 | 205 | 14.5 | 22.5 | 0.00 | 0.00 | 0.00 | 96 | 1012.3 |
| 20260506113817 | 13 | 202 | 16.1 | 30.6 | 0.00 | 0.00 | 0.00 | 96 | 1012.4 |
| 20260506113315 | 13 | 192 | 9.7 | 29.0 | 0.00 | 0.00 | 0.00 | 97 | 1012.2 |
| 20260506112811 | 13 | 196 | 12.9 | 22.5 | 0.00 | 0.00 | 0.00 | 97 | 1012.3 |
| 20260506112308 | 13 | 189 | 16.1 | 33.8 | 0.00 | 0.00 | 0.00 | 97 | 1012.5 |
| 20260506111806 | 13 | 194 | 14.5 | 32.2 | 0.00 | 0.00 | 0.00 | 97 | 1012.4 |
| 20260506111304 | 13 | 214 | 19.3 | 30.6 | 0.00 | 0.00 | 0.00 | 97 | 1012.5 |
| 20260506110801 | 13 | 194 | 14.5 | 24.1 | 0.00 | 0.00 | 0.00 | 97 | 1012.4 |
| 20260506110258 | 13 | 194 | 25.7 | 32.2 | 0.00 | 0.00 | 0.00 | 97 | 1012.3 |
| 20260506105754 | 13 | 183 | 17.7 | 32.2 | 0.00 | 0.00 | 0.00 | 98 | 1012.4 |
| 20260506105251 | 13 | 200 | 17.7 | 35.4 | 0.00 | 0.00 | 0.00 | 98 | 1012.4 |
| 20260506104749 | 13 | 197 | 8.0 | 35.4 | 0.00 | 0.00 | 0.00 | 98 | 1012.6 |
| 20260506104247 | 13 | 185 | 12.9 | 27.4 | 0.00 | 0.00 | 0.00 | 98 | 1012.4 |
| 20260506103744 | 13 | 194 | 6.4 | 27.4 | 0.00 | 0.00 | 0.00 | 98 | 1012.1 |
| 20260506103241 | 13 | 202 | 16.1 | 29.0 | 0.00 | 0.00 | 0.00 | 98 | 1012.2 |
| 20260506102739 | 13 | 154 | 11.3 | 35.4 | 0.00 | 0.00 | 0.00 | 98 | 1012.2 |
| 20260506102237 | 13 | 215 | 22.5 | 32.2 | 0.00 | 0.00 | 0.00 | 98 | 1012.2 |
| 20260506101733 | 13 | 202 | 12.9 | 30.6 | 0.00 | 0.00 | 0.00 | 98 | 1012.2 |
| 20260506101229 | 13 | 195 | 11.3 | 27.4 | 0.00 | 0.00 | 0.00 | 98 | 1012.1 |
| 20260506100727 | 13 | 187 | 22.5 | 33.8 | 0.00 | 0.00 | 0.00 | 98 | 1012.2 |
| 20260506100226 | 13 | 207 | 9.7 | 40.2 | 0.00 | 0.00 | 0.00 | 98 | 1012.1 |
| 20260506095724 | 13 | 211 | 25.7 | 27.4 | 0.00 | 0.00 | 0.00 | 98 | 1012.0 |
| 20260506095220 | 13 | 234 | 9.7 | 33.8 | 0.00 | 0.00 | 0.00 | 98 | 1011.9 |
| 20260506094717 | 13 | 187 | 14.5 | 30.6 | 0.00 | 0.00 | 0.00 | 98 | 1011.7 |
| 20260506094215 | 13 | 198 | 17.7 | 24.1 | 0.00 | 0.00 | 0.00 | 98 | 1011.9 |
| 20260506093714 | 13 | 209 | 11.3 | 29.0 | 0.00 | 0.00 | 0.00 | 98 | 1012.0 |
| 20260506093210 | 13 | 181 | 16.1 | 29.0 | 0.00 | 0.00 | 0.00 | 98 | 1012.1 |
| 20260506092708 | 13 | 211 | 14.5 | 24.1 | 0.00 | 0.00 | 0.00 | 98 | 1012.2 |
| 20260506092205 | 13 | 188 | 11.3 | 30.6 | 0.00 | 0.00 | 0.00 | 98 | 1012.1 |
| 20260506091703 | 13 | 202 | 11.3 | 27.4 | 0.00 | 0.00 | 0.00 | 98 | 1012.2 |
| 20260506091200 | 13 | 203 | 6.4 | 33.8 | 0.00 | 0.00 | 0.00 | 98 | 1012.4 |
| 20260506090658 | 13 | 203 | 11.3 | 25.7 | 0.00 | 0.00 | 0.00 | 98 | 1012.3 |
| 20260506090154 | 13 | 214 | 14.5 | 27.4 | 0.00 | 0.00 | 0.00 | 98 | 1012.6 |
| 20260506085651 | 13 | 183 | 9.7 | 30.6 | 0.00 | 0.00 | 0.00 | 98 | 1012.4 |
| 20260506085147 | 13 | 213 | 12.9 | 30.6 | 0.00 | 0.00 | 0.00 | 98 | 1012.6 |
| 20260506084644 | 13 | 223 | 9.7 | 27.4 | 0.00 | 0.00 | 0.00 | 98 | 1012.7 |
| 20260506084141 | 13 | 199 | 16.1 | 27.4 | 0.00 | 0.00 | 0.00 | 98 | 1012.6 |
| 20260506083638 | 13 | 191 | 17.7 | 22.5 | 0.00 | 0.00 | 0.00 | 98 | 1012.5 |
| 20260506083136 | 13 | 209 | 6.4 | 24.1 | 0.00 | 0.00 | 0.00 | 98 | 1012.6 |
| 20260506082632 | 13 | 197 | 9.7 | 38.6 | 0.00 | 0.00 | 0.00 | 98 | 1012.6 |
| 20260506082128 | 13 | 196 | 4.8 | 22.5 | 0.00 | 0.00 | 0.00 | 98 | 1012.5 |
| 20260506081626 | 13 | 193 | 11.3 | 22.5 | 0.00 | 0.00 | 0.00 | 98 | 1012.7 |
| 20260506081124 | 13 | 190 | 11.3 | 22.5 | 0.00 | 0.00 | 0.00 | 98 | 1012.8 |
| 20260506080621 | 13 | 201 | 20.9 | 22.5 | 0.00 | 0.00 | 0.00 | 98 | 1012.7 |
| 20260506080117 | 13 | 232 | 9.7 | 29.0 | 0.00 | 0.00 | 0.00 | 97 | 1012.6 |
| 20260506073101 | 13 | 196 | 12.9 | 33.8 | 0.00 | 0.00 | 0.00 | 97 | 1012.8 |
| 20260506072558 | 13 | 205 | 14.5 | 30.6 | 0.00 | 0.00 | 0.00 | 97 | 1012.8 |
| 20260506072056 | 13 | 234 | 9.7 | 29.0 | 0.00 | 0.00 | 0.00 | 97 | 1012.6 |
| 20260506071553 | 13 | 211 | 8.0 | 25.7 | 0.00 | 0.00 | 0.00 | 97 | 1012.6 |
| 20260506071051 | 13 | 222 | 9.7 | 35.4 | 0.00 | 0.00 | 0.00 | 97 | 1012.9 |
| 20260506070548 | 13 | 185 | 24.1 | 27.4 | 0.00 | 0.00 | 0.00 | 97 | 1012.7 |
| 20260506062022 | 13 | 265 | 11.3 | 29.0 | 0.00 | 0.00 | 0.00 | 95 | 1012.9 |
| 20260506061518 | 13 | 209 | 32.2 | 32.2 | 0.00 | 0.00 | 0.00 | 95 | 1013.0 |
| 20260506061016 | 13 | 189 | 25.7 | 29.0 | 0.00 | 0.00 | 0.00 | 95 | 1012.9 |
| 20260506060514 | 13 | 195 | 11.3 | 35.4 | 0.00 | 0.00 | 0.00 | 95 | 1013.0 |
| 20260506050942 | 13 | 203 | 14.5 | 25.7 | 0.00 | 0.00 | 0.00 | 93 | 1013.5 |
| 20260506050441 | 13 | 196 | 19.3 | 32.2 | 0.00 | 0.00 | 0.00 | 93 | 1013.4 |
| 20260506044931 | 13 | 247 | 14.5 | 27.4 | 0.00 | 0.00 | 0.00 | 93 | 1013.6 |
| 20260506044429 | 13 | 195 | 20.9 | 32.2 | 0.00 | 0.00 | 0.00 | 93 | 1013.7 |
| 20260506043925 | 13 | 209 | 14.5 | 33.8 | 0.00 | 0.00 | 0.00 | 93 | 1013.6 |
| 20260506043423 | 13 | 227 | 14.5 | 35.4 | 0.00 | 0.00 | 0.00 | 93 | 1013.5 |
| 20260506042921 | 13 | 212 | 16.1 | 41.8 | 0.00 | 0.00 | 0.00 | 93 | 1013.4 |
| 20260506042420 | 13 | 213 | 11.3 | 30.6 | 0.00 | 0.00 | 0.00 | 93 | 1013.5 |
| 20260506041918 | 13 | 186 | 16.1 | 33.8 | 0.00 | 0.00 | 0.00 | 93 | 1013.5 |
| 20260506041415 | 13 | 183 | 20.9 | 35.4 | 0.00 | 0.00 | 0.00 | 93 | 1013.5 |
| 20260506040912 | 13 | 228 | 12.9 | 27.4 | 0.00 | 0.00 | 0.00 | 93 | 1013.6 |
| 20260506040409 | 13 | 192 | 11.3 | 27.4 | 0.00 | 0.00 | 0.00 | 94 | 1013.6 |
| 20260506035905 | 13 | 203 | 19.3 | 27.4 | 0.00 | 0.00 | 0.00 | 94 | 1013.5 |
| 20260506035403 | 13 | 193 | 17.7 | 25.7 | 0.00 | 0.00 | 0.00 | 94 | 1013.6 |
| 20260506034859 | 13 | 228 | 11.3 | 30.6 | 0.00 | 0.00 | 0.00 | 93 | 1013.7 |
| 20260506034357 | 13 | 190 | 11.3 | 30.6 | 0.00 | 0.00 | 0.00 | 93 | 1013.4 |
| 20260506033854 | 13 | 198 | 19.3 | 30.6 | 0.00 | 0.00 | 0.00 | 93 | 1013.6 |
| 20260506033351 | 13 | 199 | 9.7 | 25.7 | 0.00 | 0.00 | 0.00 | 93 | 1013.7 |
| 20260506032848 | 13 | 197 | 12.9 | 29.0 | 0.00 | 0.00 | 0.00 | 93 | 1013.6 |
| 20260506032344 | 13 | 190 | 6.4 | 27.4 | 0.00 | 0.00 | 0.00 | 92 | 1013.8 |
| 20260506031841 | 13 | 191 | 16.1 | 33.8 | 0.00 | 0.00 | 0.00 | 92 | 1013.5 |
| 20260506031339 | 13 | 193 | 17.7 | 32.2 | 0.00 | 0.00 | 0.00 | 92 | 1013.7 |
| 20260506030836 | 13 | 185 | 11.3 | 29.0 | 0.00 | 0.00 | 0.00 | 92 | 1013.7 |
| 20260506030334 | 13 | 199 | 12.9 | 29.0 | 0.00 | 0.00 | 0.00 | 92 | 1013.7 |
| 20260506025830 | 13 | 201 | 14.5 | 33.8 | 0.00 | 0.00 | 0.00 | 92 | 1013.6 |
| 20260506025327 | 13 | 241 | 11.3 | 33.8 | 0.00 | 0.00 | 0.00 | 92 | 1013.6 |
| 20260506024824 | 13 | 206 | 19.3 | 24.1 | 0.00 | 0.00 | 0.00 | 92 | 1013.6 |
| 20260506024321 | 13 | 255 | 14.5 | 24.1 | 0.00 | 0.00 | 0.00 | 92 | 1013.6 |
| 20260506023817 | 13 | 196 | 17.7 | 27.4 | 0.00 | 0.00 | 0.00 | 92 | 1013.6 |
| 20260506023314 | 13 | 205 | 11.3 | 37.0 | 0.00 | 0.00 | 0.00 | 92 | 1013.8 |
| 20260506022811 | 13 | 202 | 8.0 | 27.4 | 0.00 | 0.00 | 0.00 | 92 | 1013.9 |
| 20260506022309 | 13 | 203 | 12.9 | 27.4 | 0.00 | 0.00 | 0.00 | 91 | 1013.8 |
| 20260506021807 | 13 | 202 | 14.5 | 27.4 | 0.00 | 0.00 | 0.00 | 91 | 1013.7 |
| 20260506021304 | 14 | 181 | 11.3 | 32.2 | 0.00 | 0.00 | 0.00 | 91 | 1013.7 |
| 20260506020800 | 14 | 226 | 12.9 | 32.2 | 0.00 | 0.00 | 0.00 | 91 | 1013.8 |
| 20260506020258 | 14 | 214 | 14.5 | 27.4 | 0.00 | 0.00 | 0.00 | 91 | 1013.9 |
| 20260506015755 | 13 | 222 | 11.3 | 30.6 | 0.00 | 0.00 | 0.00 | 91 | 1013.6 |
| 20260506015253 | 13 | 233 | 9.7 | 32.2 | 0.00 | 0.00 | 0.00 | 91 | 1013.5 |
| 20260506014749 | 13 | 196 | 9.7 | 30.6 | 0.00 | 0.00 | 0.00 | 91 | 1013.6 |
| 20260506014246 | 13 | 226 | 12.9 | 29.0 | 0.00 | 0.00 | 0.00 | 91 | 1013.4 |
| 20260506013743 | 13 | 192 | 6.4 | 27.4 | 0.00 | 0.00 | 0.00 | 91 | 1013.4 |
| 20260506013240 | 13 | 205 | 16.1 | 27.4 | 0.00 | 0.00 | 0.00 | 91 | 1013.4 |
| 20260506012736 | 14 | 225 | 11.3 | 29.0 | 0.00 | 0.00 | 0.00 | 90 | 1013.4 |
| 20260506012233 | 14 | 194 | 30.6 | 40.2 | 0.00 | 0.00 | 0.00 | 90 | 1013.3 |
| 20260506011731 | 14 | 212 | 9.7 | 35.4 | 0.00 | 0.00 | 0.00 | 90 | 1013.4 |
| 20260506011226 | 14 | 210 | 8.0 | 38.6 | 0.00 | 0.00 | 0.00 | 90 | 1013.3 |
| 20260506010725 | 14 | 200 | 17.7 | 29.0 | 0.00 | 0.00 | 0.00 | 91 | 1013.3 |
| 20260506010222 | 14 | 207 | 11.3 | 22.5 | 0.00 | 0.00 | 0.00 | 91 | 1013.2 |
| 20260506005720 | 14 | 199 | 17.7 | 27.4 | 0.00 | 0.00 | 0.00 | 91 | 1013.3 |
| 20260506005216 | 14 | 201 | 17.7 | 30.6 | 0.00 | 0.00 | 0.00 | 91 | 1013.1 |
| 20260506004712 | 14 | 190 | 8.0 | 32.2 | 0.00 | 0.00 | 0.00 | 91 | 1012.9 |
| 20260506004210 | 14 | 196 | 12.9 | 37.0 | 0.00 | 0.00 | 0.00 | 91 | 1013.1 |
| 20260506003706 | 14 | 220 | 14.5 | 29.0 | 0.00 | 0.00 | 0.00 | 91 | 1013.2 |
| 20260506003202 | 14 | 191 | 30.6 | 30.6 | 0.00 | 0.00 | 0.00 | 91 | 1013.0 |
| 20260506002653 | 14 | 206 | 17.7 | 33.8 | 0.00 | 0.00 | 0.00 | 91 | 1013.0 |
| 20260506002149 | 14 | 202 | 9.7 | 24.1 | 0.00 | 0.00 | 0.00 | 90 | 1013.2 |
| 20260506001645 | 14 | 190 | 14.5 | 40.2 | 0.00 | 0.00 | 0.00 | 90 | 1013.1 |
| 20260506001143 | 14 | 215 | 14.5 | 27.4 | 0.00 | 0.00 | 0.00 | 90 | 1013.0 |
| 20260506000639 | 14 | 211 | 17.7 | 29.0 | 0.00 | 0.00 | 0.00 | 90 | 1012.9 |
| 20260506000137 | 14 | 234 | 17.7 | 32.2 | 0.00 | 0.00 | 0.00 | 90 | 1013.0 |
| 20260505235635 | 14 | 213 | 16.1 | 29.0 | 0.00 | 0.00 | 0.00 | 89 | 1012.8 |
| 20260505235132 | 14 | 203 | 9.7 | 30.6 | 0.00 | 0.00 | 0.00 | 89 | 1013.0 |
| 20260505234628 | 15 | 213 | 22.5 | 27.4 | 0.00 | 0.00 | 0.00 | 88 | 1012.7 |
| 20260505234125 | 15 | 200 | 8.0 | 30.6 | 0.00 | 0.00 | 0.00 | 88 | 1012.7 |
| 20260505233623 | 15 | 197 | 6.4 | 38.6 | 0.00 | 0.00 | 0.00 | 88 | 1012.6 |
| 20260505233120 | 15 | 195 | 19.3 | 32.2 | 0.00 | 0.00 | 0.00 | 87 | 1012.6 |
| 20260505232618 | 15 | 199 | 17.7 | 35.4 | 0.00 | 0.00 | 0.00 | 87 | 1012.7 |
| 20260505232115 | 15 | 185 | 16.1 | 33.8 | 0.00 | 0.00 | 0.00 | 87 | 1012.6 |
| 20260505231612 | 15 | 211 | 17.7 | 41.8 | 0.00 | 0.00 | 0.00 | 87 | 1012.4 |
| 20260505231110 | 15 | 202 | 12.9 | 38.6 | 0.00 | 0.00 | 0.00 | 87 | 1012.4 |
| 20260505230608 | 15 | 178 | 17.7 | 30.6 | 0.00 | 0.00 | 0.00 | 86 | 1012.5 |
| 20260505230104 | 15 | 218 | 12.9 | 27.4 | 0.00 | 0.00 | 0.00 | 86 | 1012.5 |
| 20260505225601 | 15 | 185 | 11.3 | 38.6 | 0.00 | 0.00 | 0.00 | 86 | 1012.4 |
| 20260505225056 | 15 | 196 | 22.5 | 33.8 | 0.00 | 0.00 | 0.00 | 85 | 1012.3 |
| 20260505224554 | 15 | 196 | 27.4 | 35.4 | 0.00 | 0.00 | 0.00 | 85 | 1012.2 |
| 20260505224051 | 15 | 177 | 11.3 | 33.8 | 0.00 | 0.00 | 0.00 | 85 | 1012.4 |
| 20260505223548 | 15 | 230 | 14.5 | 40.2 | 0.00 | 0.00 | 0.00 | 85 | 1012.2 |
| 20260505223044 | 15 | 199 | 14.5 | 35.4 | 0.00 | 0.00 | 0.00 | 84 | 1012.2 |
| 20260505222541 | 15 | 199 | 24.1 | 32.2 | 0.00 | 0.00 | 0.00 | 84 | 1012.3 |
| 20260505222037 | 15 | 210 | 19.3 | 33.8 | 0.00 | 0.00 | 0.00 | 84 | 1012.3 |
| 20260505221534 | 15 | 210 | 12.9 | 30.6 | 0.00 | 0.00 | 0.00 | 84 | 1012.3 |
| 20260505221030 | 15 | 242 | 9.7 | 32.2 | 0.00 | 0.00 | 0.00 | 84 | 1012.1 |
| 20260505220528 | 15 | 209 | 27.4 | 37.0 | 0.00 | 0.00 | 0.00 | 84 | 1012.1 |
| 20260505220026 | 15 | 208 | 29.0 | 33.8 | 0.00 | 0.00 | 0.00 | 84 | 1011.8 |
| 20260505215523 | 15 | 201 | 20.9 | 45.1 | 0.00 | 0.00 | 0.00 | 84 | 1012.0 |
| 20260505215020 | 15 | 190 | 11.3 | 32.2 | 0.00 | 0.00 | 0.00 | 84 | 1012.1 |
| 20260505214519 | 15 | 205 | 16.1 | 37.0 | 0.00 | 0.00 | 0.00 | 84 | 1011.8 |
| 20260505214016 | 15 | 174 | 16.1 | 40.2 | 0.00 | 0.00 | 0.00 | 83 | 1011.8 |
| 20260505213514 | 15 | 209 | 14.5 | 43.5 | 0.00 | 0.00 | 0.00 | 83 | 1011.9 |
| 20260505213009 | 15 | 182 | 25.7 | 29.0 | 0.00 | 0.00 | 0.00 | 83 | 1011.7 |
| 20260505212506 | 16 | 182 | 24.1 | 43.5 | 0.00 | 0.00 | 0.00 | 83 | 1011.7 |